| time (UTC) | temp F | wind direction | speed MPH | gust MPH | rain 1hr in | rain 24hr in | rain mn in | humidity % | barometer mb |
| 20260506051052 | 41 | 197 | 3.0 | 0.0 | 0.00 | 0.00 | 0.00 | 68 | 1004.1 |
| 20260506050543 | 41 | 196 | 3.0 | 0.0 | 0.00 | 0.00 | 0.00 | 68 | 1004.1 |
| 20260506045021 | 39 | 189 | 1.0 | 0.0 | 0.00 | 0.00 | 0.00 | 71 | 1004.0 |
| 20260506044527 | 39 | 199 | 2.0 | 0.0 | 0.00 | 0.00 | 0.00 | 72 | 1004.0 |
| 20260506044041 | 38 | 182 | 2.0 | 0.0 | 0.00 | 0.00 | 0.00 | 72 | 1004.0 |
| 20260506043527 | 38 | 189 | 2.0 | 0.0 | 0.00 | 0.00 | 0.00 | 74 | 1004.0 |
| 20260506043044 | 37 | 223 | 2.0 | 0.0 | 0.00 | 0.00 | 0.00 | 75 | 1003.9 |
| 20260506042520 | 36 | 207 | 2.0 | 0.0 | 0.00 | 0.00 | 0.00 | 76 | 1003.9 |
| 20260506042036 | 36 | 196 | 2.0 | 0.0 | 0.00 | 0.00 | 0.00 | 76 | 1003.9 |
| 20260506041559 | 35 | 189 | 3.0 | 0.0 | 0.00 | 0.00 | 0.00 | 78 | 1003.9 |
| 20260506041023 | 35 | 204 | 3.0 | 0.0 | 0.00 | 0.00 | 0.00 | 77 | 1003.7 |
| 20260506040539 | 35 | 192 | 3.0 | 0.0 | 0.00 | 0.00 | 0.00 | 78 | 1003.7 |
| 20260506040022 | 35 | 193 | 3.0 | 0.0 | 0.00 | 0.00 | 0.00 | 78 | 1003.5 |
| 20260506035539 | 34 | 196 | 3.0 | 0.0 | 0.00 | 0.00 | 0.00 | 79 | 1003.5 |
| 20260506035042 | 34 | 203 | 2.0 | 0.0 | 0.00 | 0.00 | 0.00 | 80 | 1003.5 |
| 20260506034534 | 34 | 176 | 2.0 | 0.0 | 0.00 | 0.00 | 0.00 | 80 | 1003.5 |
| 20260506034043 | 33 | 182 | 2.0 | 0.0 | 0.00 | 0.00 | 0.00 | 81 | 1003.4 |
| 20260506033527 | 33 | 202 | 3.0 | 0.0 | 0.00 | 0.00 | 0.00 | 81 | 1003.4 |
| 20260506033024 | 33 | 207 | 2.0 | 0.0 | 0.00 | 0.00 | 0.00 | 82 | 1003.3 |
| 20260506032524 | 33 | 193 | 2.0 | 0.0 | 0.00 | 0.00 | 0.00 | 82 | 1003.3 |
| 20260506032041 | 32 | 202 | 2.0 | 0.0 | 0.00 | 0.00 | 0.00 | 83 | 1003.3 |
| 20260506031527 | 32 | 203 | 2.0 | 0.0 | 0.00 | 0.00 | 0.00 | 83 | 1003.0 |
| 20260506031033 | 32 | 199 | 2.0 | 0.0 | 0.00 | 0.00 | 0.00 | 84 | 1003.0 |
| 20260506030553 | 32 | 197 | 2.0 | 0.0 | 0.00 | 0.00 | 0.00 | 84 | 1003.0 |
| 20260506030038 | 31 | 200 | 2.0 | 0.0 | 0.00 | 0.00 | 0.00 | 84 | 1003.0 |
| 20260506025523 | 31 | 200 | 2.0 | 0.0 | 0.00 | 0.00 | 0.00 | 84 | 1003.0 |
| 20260506025041 | 31 | 200 | 2.0 | 0.0 | 0.00 | 0.00 | 0.00 | 85 | 1003.0 |
| 20260506024548 | 31 | 200 | 1.0 | 0.0 | 0.00 | 0.00 | 0.00 | 85 | 1002.9 |
| 20260506024020 | 31 | 200 | 1.0 | 0.0 | 0.00 | 0.00 | 0.00 | 85 | 1002.9 |
| 20260506023531 | 31 | 200 | 2.0 | 0.0 | 0.00 | 0.00 | 0.00 | 85 | 1002.9 |
| 20260506023026 | 31 | 200 | 2.0 | 0.0 | 0.00 | 0.00 | 0.00 | 85 | 1002.8 |
| 20260506022545 | 31 | 200 | 2.0 | 0.0 | 0.00 | 0.00 | 0.00 | 85 | 1002.8 |
| 20260506022032 | 31 | 200 | 2.0 | 0.0 | 0.00 | 0.00 | 0.00 | 85 | 1002.8 |
| 20260506021538 | 31 | 200 | 2.0 | 0.0 | 0.00 | 0.00 | 0.00 | 85 | 1002.8 |
| 20260506021030 | 31 | 200 | 2.0 | 0.0 | 0.00 | 0.00 | 0.00 | 85 | 1002.8 |
| 20260506020543 | 31 | 200 | 1.0 | 0.0 | 0.00 | 0.00 | 0.00 | 85 | 1002.8 |
| 20260506020055 | 31 | 200 | 1.0 | 0.0 | 0.00 | 0.00 | 0.00 | 84 | 1002.8 |
| 20260506015545 | 31 | 200 | 1.0 | 0.0 | 0.00 | 0.00 | 0.00 | 84 | 1002.6 |
| 20260506015029 | 31 | 200 | 1.0 | 0.0 | 0.00 | 0.00 | 0.00 | 84 | 1002.6 |
| 20260506014544 | 31 | 200 | 1.0 | 0.0 | 0.00 | 0.00 | 0.00 | 84 | 1002.6 |
| 20260506014027 | 31 | 200 | 1.0 | 0.0 | 0.00 | 0.00 | 0.00 | 84 | 1002.5 |
| 20260506013534 | 31 | 200 | 1.0 | 0.0 | 0.00 | 0.00 | 0.00 | 84 | 1002.5 |
| 20260506013021 | 31 | 200 | 1.0 | 0.0 | 0.00 | 0.00 | 0.00 | 84 | 1002.4 |
| 20260506012532 | 31 | 200 | 1.0 | 0.0 | 0.00 | 0.00 | 0.00 | 83 | 1002.4 |
| 20260506012035 | 31 | 200 | 1.0 | 0.0 | 0.00 | 0.00 | 0.00 | 83 | 1002.4 |
| 20260506011541 | 31 | 200 | 1.0 | 0.0 | 0.00 | 0.00 | 0.00 | 82 | 1002.4 |
| 20260506011035 | 31 | 200 | 1.0 | 0.0 | 0.00 | 0.00 | 0.00 | 82 | 1002.2 |
| 20260506010545 | 32 | 200 | 1.0 | 0.0 | 0.00 | 0.00 | 0.00 | 82 | 1002.3 |
| 20260506010025 | 32 | 200 | 1.0 | 0.0 | 0.00 | 0.00 | 0.00 | 81 | 1002.1 |
| 20260506005600 | 32 | 200 | 1.0 | 0.0 | 0.00 | 0.00 | 0.00 | 80 | 1002.1 |
| 20260506005026 | 32 | 200 | 1.0 | 0.0 | 0.00 | 0.00 | 0.00 | 80 | 1002.1 |
| 20260506004540 | 32 | 200 | 1.0 | 0.0 | 0.00 | 0.00 | 0.00 | 80 | 1002.1 |
| 20260506004044 | 32 | 200 | 1.0 | 0.0 | 0.00 | 0.00 | 0.00 | 79 | 1001.9 |
| 20260506003535 | 32 | 200 | 2.0 | 0.0 | 0.00 | 0.00 | 0.00 | 79 | 1001.9 |
| 20260506003039 | 33 | 200 | 2.0 | 0.0 | 0.00 | 0.00 | 0.00 | 77 | 1001.9 |
| 20260506002523 | 33 | 202 | 2.0 | 0.0 | 0.00 | 0.00 | 0.00 | 77 | 1001.9 |
| 20260506002034 | 33 | 202 | 2.0 | 0.0 | 0.00 | 0.00 | 0.00 | 76 | 1001.9 |
| 20260506001523 | 33 | 202 | 1.0 | 0.0 | 0.00 | 0.00 | 0.00 | 75 | 1001.7 |
| 20260506001028 | 33 | 202 | 2.0 | 0.0 | 0.00 | 0.00 | 0.00 | 75 | 1001.7 |
| 20260506000543 | 33 | 202 | 2.0 | 0.0 | 0.00 | 0.00 | 0.00 | 74 | 1001.7 |
| 20260506000051 | 34 | 202 | 2.0 | 0.0 | 0.00 | 0.00 | 0.00 | 75 | 1001.6 |
| 20260505235547 | 34 | 202 | 1.0 | 0.0 | 0.00 | 0.00 | 0.00 | 75 | 1001.6 |
| 20260505235027 | 34 | 185 | 1.0 | 0.0 | 0.00 | 0.00 | 0.00 | 75 | 1001.6 |
| 20260505234608 | 34 | 185 | 1.0 | 0.0 | 0.00 | 0.00 | 0.00 | 75 | 1001.6 |
| 20260505234047 | 34 | 185 | 1.0 | 0.0 | 0.00 | 0.00 | 0.00 | 75 | 1001.5 |
| 20260505233530 | 34 | 185 | 0.0 | 0.0 | 0.00 | 0.00 | 0.00 | 75 | 1001.5 |
| 20260505233023 | 34 | 185 | 0.0 | 0.0 | 0.00 | 0.00 | 0.00 | 74 | 1001.4 |
| 20260505232528 | 34 | 185 | 0.0 | 0.0 | 0.00 | 0.00 | 0.00 | 75 | 1001.4 |
| 20260505232037 | 34 | 185 | 0.0 | 0.0 | 0.00 | 0.00 | 0.00 | 75 | 1001.4 |
| 20260505231530 | 34 | 185 | 1.0 | 0.0 | 0.00 | 0.00 | 0.00 | 76 | 1001.4 |
| 20260505231035 | 34 | 185 | 1.0 | 0.0 | 0.00 | 0.00 | 0.00 | 77 | 1001.4 |
| 20260505230544 | 34 | 185 | 1.0 | 0.0 | 0.00 | 0.00 | 0.00 | 77 | 1001.4 |
| 20260505230040 | 34 | 185 | 2.0 | 0.0 | 0.00 | 0.00 | 0.00 | 77 | 1001.4 |
| 20260505225526 | 34 | 185 | 3.0 | 0.0 | 0.00 | 0.00 | 0.00 | 78 | 1001.5 |
| 20260505225043 | 34 | 190 | 3.0 | 0.0 | 0.00 | 0.00 | 0.00 | 78 | 1001.5 |
| 20260505224527 | 34 | 199 | 2.0 | 0.0 | 0.00 | 0.00 | 0.00 | 78 | 1001.4 |
| 20260505224031 | 34 | 199 | 2.0 | 0.0 | 0.00 | 0.00 | 0.00 | 77 | 1001.4 |
| 20260505223535 | 34 | 200 | 3.0 | 0.0 | 0.00 | 0.00 | 0.00 | 77 | 1001.4 |
| 20260505223051 | 35 | 224 | 3.0 | 0.0 | 0.00 | 0.00 | 0.00 | 77 | 1001.4 |
| 20260505222537 | 35 | 209 | 3.0 | 0.0 | 0.00 | 0.00 | 0.00 | 77 | 1001.4 |
| 20260505222032 | 35 | 197 | 3.0 | 0.0 | 0.00 | 0.00 | 0.00 | 76 | 1001.4 |
| 20260505221533 | 35 | 200 | 3.0 | 0.0 | 0.00 | 0.00 | 0.00 | 76 | 1001.4 |
| 20260505221020 | 35 | 202 | 2.0 | 0.0 | 0.00 | 0.00 | 0.00 | 76 | 1001.3 |
| 20260505220534 | 35 | 197 | 3.0 | 0.0 | 0.00 | 0.00 | 0.00 | 76 | 1001.3 |
| 20260505220040 | 35 | 161 | 3.0 | 0.0 | 0.00 | 0.00 | 0.00 | 75 | 1001.3 |
| 20260505215544 | 35 | 182 | 3.0 | 0.0 | 0.00 | 0.00 | 0.00 | 75 | 1001.1 |
| 20260505215039 | 35 | 197 | 2.0 | 0.0 | 0.00 | 0.00 | 0.00 | 75 | 1001.1 |
| 20260505214523 | 35 | 182 | 3.0 | 0.0 | 0.00 | 0.00 | 0.00 | 74 | 1001.0 |
| 20260505214030 | 35 | 182 | 3.0 | 0.0 | 0.00 | 0.00 | 0.00 | 74 | 1001.0 |
| 20260505213542 | 35 | 187 | 2.0 | 0.0 | 0.00 | 0.00 | 0.00 | 74 | 1001.0 |
| 20260505213026 | 36 | 187 | 2.0 | 0.0 | 0.00 | 0.00 | 0.00 | 74 | 1001.0 |
| 20260505212532 | 36 | 192 | 3.0 | 0.0 | 0.00 | 0.00 | 0.00 | 73 | 1001.0 |
| 20260505212027 | 36 | 226 | 2.0 | 0.0 | 0.00 | 0.00 | 0.00 | 73 | 1001.0 |
| 20260505211536 | 36 | 190 | 2.0 | 0.0 | 0.00 | 0.00 | 0.00 | 72 | 1001.0 |
| 20260505211054 | 36 | 190 | 2.0 | 0.0 | 0.00 | 0.00 | 0.00 | 72 | 1000.9 |
| 20260505210521 | 36 | 214 | 3.0 | 0.0 | 0.00 | 0.00 | 0.00 | 72 | 1000.9 |
| 20260505210035 | 36 | 211 | 3.0 | 0.0 | 0.00 | 0.00 | 0.00 | 72 | 1000.8 |
| 20260505205523 | 36 | 186 | 3.0 | 0.0 | 0.00 | 0.00 | 0.00 | 72 | 1000.8 |
| 20260505205030 | 36 | 138 | 3.0 | 0.0 | 0.00 | 0.00 | 0.00 | 71 | 1000.8 |
| 20260505204538 | 36 | 178 | 2.0 | 0.0 | 0.00 | 0.00 | 0.00 | 70 | 1000.9 |
| 20260505204021 | 36 | 192 | 2.0 | 0.0 | 0.00 | 0.00 | 0.00 | 70 | 1000.8 |
| 20260505203529 | 36 | 190 | 3.0 | 0.0 | 0.00 | 0.00 | 0.00 | 70 | 1000.8 |
| 20260505203048 | 37 | 169 | 3.0 | 0.0 | 0.00 | 0.00 | 0.00 | 69 | 1000.8 |
| 20260505202532 | 37 | 152 | 3.0 | 0.0 | 0.00 | 0.00 | 0.00 | 69 | 1000.8 |
| 20260505202039 | 37 | 189 | 3.0 | 0.0 | 0.00 | 0.00 | 0.00 | 68 | 1000.8 |
| 20260505201556 | 37 | 194 | 3.0 | 0.0 | 0.00 | 0.00 | 0.00 | 67 | 1000.8 |
| 20260505201019 | 37 | 194 | 3.0 | 0.0 | 0.00 | 0.00 | 0.00 | 67 | 1000.7 |
| 20260505200547 | 37 | 194 | 3.0 | 0.0 | 0.00 | 0.00 | 0.00 | 67 | 1000.7 |
| 20260505200022 | 37 | 247 | 3.0 | 0.0 | 0.00 | 0.00 | 0.00 | 66 | 1000.7 |
| 20260505195523 | 37 | 183 | 3.0 | 0.0 | 0.00 | 0.00 | 0.00 | 65 | 1000.7 |
| 20260505195039 | 37 | 185 | 2.0 | 0.0 | 0.00 | 0.00 | 0.00 | 64 | 1000.7 |
| 20260505194550 | 38 | 186 | 2.0 | 0.0 | 0.00 | 0.00 | 0.00 | 63 | 1000.6 |
| 20260505194020 | 38 | 186 | 1.0 | 0.0 | 0.00 | 0.00 | 0.00 | 62 | 1000.6 |
| 20260505193536 | 38 | 186 | 1.0 | 0.0 | 0.00 | 0.00 | 0.00 | 62 | 1000.6 |
| 20260505193032 | 38 | 186 | 1.0 | 0.0 | 0.00 | 0.00 | 0.00 | 61 | 1000.6 |
| 20260505192521 | 39 | 186 | 1.0 | 0.0 | 0.00 | 0.00 | 0.00 | 61 | 1000.6 |
| 20260505192032 | 39 | 186 | 1.0 | 0.0 | 0.00 | 0.00 | 0.00 | 60 | 1000.6 |
| 20260505191531 | 39 | 186 | 1.0 | 0.0 | 0.00 | 0.00 | 0.00 | 59 | 1000.5 |
| 20260505191035 | 40 | 186 | 1.0 | 0.0 | 0.00 | 0.00 | 0.00 | 58 | 1000.5 |
| 20260505190524 | 40 | 186 | 1.0 | 0.0 | 0.00 | 0.00 | 0.00 | 58 | 1000.5 |
| 20260505190037 | 40 | 186 | 1.0 | 0.0 | 0.00 | 0.00 | 0.00 | 57 | 1000.5 |
| 20260505185521 | 41 | 186 | 2.0 | 0.0 | 0.00 | 0.00 | 0.00 | 56 | 1000.4 |
| 20260505185036 | 41 | 186 | 2.0 | 0.0 | 0.00 | 0.00 | 0.00 | 55 | 1000.4 |
| 20260505184544 | 42 | 187 | 1.0 | 0.0 | 0.00 | 0.00 | 0.00 | 55 | 1000.3 |
| 20260505184100 | 42 | 187 | 1.0 | 0.0 | 0.00 | 0.00 | 0.00 | 54 | 1000.3 |
| 20260505183527 | 42 | 187 | 2.0 | 0.0 | 0.00 | 0.00 | 0.00 | 53 | 1000.3 |
| 20260505183021 | 42 | 193 | 2.0 | 0.0 | 0.00 | 0.00 | 0.00 | 51 | 1000.3 |
| 20260505182529 | 43 | 197 | 2.0 | 0.0 | 0.00 | 0.00 | 0.00 | 51 | 1000.3 |
| 20260505182023 | 43 | 192 | 2.0 | 0.0 | 0.00 | 0.00 | 0.00 | 51 | 1000.3 |
| 20260505181527 | 43 | 209 | 2.0 | 0.0 | 0.00 | 0.00 | 0.00 | 50 | 1000.1 |
| 20260505181105 | 43 | 206 | 2.0 | 0.0 | 0.00 | 0.00 | 0.00 | 50 | 1000.1 |
| 20260505180552 | 44 | 206 | 2.0 | 0.0 | 0.00 | 0.00 | 0.00 | 49 | 1000.2 |
| 20260505180027 | 44 | 178 | 2.0 | 0.0 | 0.00 | 0.00 | 0.00 | 49 | 1000.0 |
| 20260505175533 | 44 | 206 | 2.0 | 0.0 | 0.00 | 0.00 | 0.00 | 48 | 1000.0 |
| 20260505175039 | 44 | 218 | 2.0 | 0.0 | 0.00 | 0.00 | 0.00 | 48 | 1000.0 |
| 20260505174524 | 45 | 238 | 3.0 | 0.0 | 0.00 | 0.00 | 0.00 | 47 | 999.9 |
| 20260505174042 | 45 | 192 | 2.0 | 0.0 | 0.00 | 0.00 | 0.00 | 47 | 999.9 |
| 20260505173527 | 45 | 227 | 2.0 | 0.0 | 0.00 | 0.00 | 0.00 | 47 | 999.9 |
| 20260505173030 | 46 | 203 | 3.0 | 0.0 | 0.00 | 0.00 | 0.00 | 47 | 999.8 |
| 20260505172042 | 46 | 179 | 3.0 | 0.0 | 0.00 | 0.00 | 0.00 | 45 | 999.8 |
| 20260505171526 | 47 | 223 | 3.0 | 0.0 | 0.00 | 0.00 | 0.00 | 42 | 999.7 |
| 20260505171031 | 47 | 214 | 2.0 | 0.0 | 0.00 | 0.00 | 0.00 | 42 | 999.7 |
| 20260505170548 | 47 | 204 | 2.0 | 0.0 | 0.00 | 0.00 | 0.00 | 41 | 999.7 |
| 20260505170056 | 47 | 199 | 3.0 | 0.0 | 0.00 | 0.00 | 0.00 | 39 | 999.6 |
| 20260505165522 | 48 | 214 | 4.0 | 0.0 | 0.00 | 0.00 | 0.00 | 40 | 999.6 |
| 20260505165032 | 48 | 244 | 4.0 | 0.0 | 0.00 | 0.00 | 0.00 | 39 | 999.6 |
| 20260505164525 | 48 | 200 | 3.0 | 0.0 | 0.00 | 0.00 | 0.00 | 39 | 999.5 |
| 20260505164027 | 49 | 199 | 3.0 | 0.0 | 0.00 | 0.00 | 0.00 | 38 | 999.5 |
| 20260505163522 | 49 | 202 | 2.0 | 0.0 | 0.00 | 0.00 | 0.00 | 38 | 999.5 |
| 20260505163037 | 49 | 257 | 3.0 | 0.0 | 0.00 | 0.00 | 0.00 | 39 | 999.5 |
| 20260505162525 | 49 | 299 | 4.0 | 0.0 | 0.00 | 0.00 | 0.00 | 38 | 999.4 |
| 20260505162026 | 49 | 227 | 4.0 | 0.0 | 0.00 | 0.00 | 0.00 | 37 | 999.4 |
| 20260505161530 | 49 | 237 | 4.0 | 0.0 | 0.00 | 0.00 | 0.00 | 37 | 999.3 |
| 20260505161046 | 50 | 180 | 3.0 | 0.0 | 0.00 | 0.00 | 0.00 | 36 | 999.3 |
| 20260505160533 | 50 | 207 | 3.0 | 0.0 | 0.00 | 0.00 | 0.00 | 36 | 999.3 |
| 20260505153037 | 50 | 228 | 7.0 | 0.0 | 0.00 | 0.00 | 0.00 | 33 | 999.2 |
| 20260505152525 | 49 | 255 | 6.0 | 0.0 | 0.00 | 0.00 | 0.00 | 33 | 999.1 |
| 20260505152030 | 49 | 272 | 7.0 | 0.0 | 0.00 | 0.00 | 0.00 | 35 | 999.1 |
| 20260505151525 | 49 | 266 | 7.0 | 0.0 | 0.00 | 0.00 | 0.00 | 32 | 999.1 |
| 20260505151032 | 49 | 269 | 7.0 | 0.0 | 0.00 | 0.00 | 0.00 | 32 | 999.1 |
| 20260505150521 | 49 | 247 | 7.0 | 0.0 | 0.00 | 0.00 | 0.00 | 32 | 999.1 |
| 20260505140523 | 50 | 235 | 9.0 | 0.0 | 0.00 | 0.00 | 0.00 | 35 | 998.7 |
| 20260505125038 | 51 | 305 | 7.0 | 0.0 | 0.00 | 0.00 | 0.00 | 33 | 998.2 |
| 20260505124545 | 51 | 250 | 6.0 | 0.0 | 0.00 | 0.00 | 0.00 | 36 | 998.0 |
| 20260505124029 | 51 | 240 | 5.0 | 0.0 | 0.00 | 0.00 | 0.00 | 36 | 998.0 |
| 20260505123526 | 51 | 206 | 6.0 | 0.0 | 0.00 | 0.00 | 0.00 | 36 | 998.0 |
| 20260505123029 | 51 | 255 | 6.0 | 0.0 | 0.00 | 0.00 | 0.00 | 35 | 997.9 |
| 20260505122536 | 51 | 264 | 7.0 | 0.0 | 0.00 | 0.00 | 0.00 | 39 | 997.9 |
| 20260505122025 | 51 | 316 | 9.0 | 0.0 | 0.00 | 0.00 | 0.00 | 40 | 997.9 |
| 20260505121543 | 51 | 254 | 10.0 | 0.0 | 0.00 | 0.00 | 0.00 | 37 | 997.7 |
| 20260505121039 | 51 | 264 | 8.0 | 0.0 | 0.00 | 0.00 | 0.00 | 35 | 997.7 |
| 20260505120526 | 51 | 310 | 6.0 | 0.0 | 0.00 | 0.00 | 0.00 | 39 | 997.7 |
| 20260505120030 | 51 | 203 | 9.0 | 0.0 | 0.00 | 0.00 | 0.00 | 39 | 997.7 |
| 20260505115541 | 50 | 264 | 7.0 | 0.0 | 0.00 | 0.00 | 0.00 | 35 | 997.6 |
| 20260505115026 | 50 | 209 | 7.0 | 0.0 | 0.00 | 0.00 | 0.00 | 41 | 997.6 |
| 20260505114535 | 50 | 289 | 8.0 | 0.0 | 0.00 | 0.00 | 0.00 | 36 | 997.6 |
| 20260505114021 | 50 | 227 | 9.0 | 0.0 | 0.00 | 0.00 | 0.00 | 36 | 997.5 |
| 20260505113602 | 50 | 245 | 8.0 | 0.0 | 0.00 | 0.00 | 0.00 | 34 | 997.5 |
| 20260505113028 | 51 | 288 | 6.0 | 0.0 | 0.00 | 0.00 | 0.00 | 36 | 997.2 |
| 20260505112556 | 51 | 223 | 7.0 | 0.0 | 0.00 | 0.00 | 0.00 | 36 | 997.2 |
| 20260505112031 | 51 | 240 | 8.0 | 0.0 | 0.00 | 0.00 | 0.00 | 33 | 997.2 |
| 20260505111534 | 52 | 265 | 6.0 | 0.0 | 0.00 | 0.00 | 0.00 | 34 | 997.2 |
| 20260505111035 | 51 | 237 | 4.0 | 0.0 | 0.00 | 0.00 | 0.00 | 38 | 997.2 |
| 20260505110529 | 51 | 221 | 5.0 | 0.0 | 0.00 | 0.00 | 0.00 | 37 | 997.2 |
| 20260505102022 | 0 | 0.0 | 0.0 | 0.00 | 0.00 | 0.00 | 996.7 | ||
| 20260505101539 | 0 | 0.0 | 0.0 | 0.00 | 0.00 | 0.00 | 996.7 | ||
| 20260505101030 | 0 | 0.0 | 0.0 | 0.00 | 0.00 | 0.00 | 996.4 | ||
| 20260505100538 | 0 | 0.0 | 0.0 | 0.00 | 0.00 | 0.00 | 996.4 | ||
| 20260505100030 | 0 | 0.0 | 0.0 | 0.00 | 0.00 | 0.00 | 996.3 | ||
| 20260505095540 | 0 | 0.0 | 0.0 | 0.00 | 0.00 | 0.00 | 996.3 | ||
| 20260505095030 | 0 | 0.0 | 0.0 | 0.00 | 0.00 | 0.00 | 996.3 | ||
| 20260505094523 | 0 | 0.0 | 0.0 | 0.00 | 0.00 | 0.00 | 996.2 | ||
| 20260505094034 | 0 | 0.0 | 0.0 | 0.00 | 0.00 | 0.00 | 996.2 | ||
| 20260505093524 | 0 | 0.0 | 0.0 | 0.00 | 0.00 | 0.00 | 996.2 | ||
| 20260505093038 | 0 | 0.0 | 0.0 | 0.00 | 0.00 | 0.00 | 996.2 | ||
| 20260505092524 | 0 | 0.0 | 0.0 | 0.00 | 0.00 | 0.00 | 996.1 | ||
| 20260505092036 | 0 | 0.0 | 0.0 | 0.00 | 0.00 | 0.00 | 996.1 | ||
| 20260505091610 | 0 | 0.0 | 0.0 | 0.00 | 0.00 | 0.00 | 996.1 | ||
| 20260505091032 | 0 | 0.0 | 0.0 | 0.00 | 0.00 | 0.00 | 995.9 | ||
| 20260505090538 | 0 | 0.0 | 0.0 | 0.00 | 0.00 | 0.00 | 995.9 | ||
| 20260505090020 | 0 | 0.0 | 0.0 | 0.00 | 0.00 | 0.00 | 995.7 | ||
| 20260505085535 | 0 | 0.0 | 0.0 | 0.00 | 0.00 | 0.00 | 995.7 | ||
| 20260505085023 | 49 | 0.0 | 0.0 | 0.00 | 0.00 | 0.00 | 55 | 995.8 | |
| 20260505084523 | 49 | 0.0 | 0.0 | 0.00 | 0.00 | 0.00 | 55 | 995.6 | |
| 20260505084017 | 49 | 0.0 | 0.0 | 0.00 | 0.00 | 0.00 | 55 | 995.6 | |
| 20260505083523 | 49 | 238 | 5.0 | 0.0 | 0.00 | 0.00 | 0.00 | 55 | 995.6 |
| 20260505083025 | 49 | 186 | 5.0 | 0.0 | 0.00 | 0.00 | 0.00 | 55 | 995.5 |
| 20260505082530 | 49 | 200 | 5.0 | 0.0 | 0.00 | 0.00 | 0.00 | 51 | 995.5 |
| 20260505082046 | 50 | 230 | 4.0 | 0.0 | 0.00 | 0.00 | 0.00 | 49 | 995.5 |
| 20260505081530 | 49 | 175 | 3.0 | 0.0 | 0.00 | 0.00 | 0.00 | 59 | 995.3 |
| 20260505081034 | 49 | 179 | 4.0 | 0.0 | 0.00 | 0.00 | 0.00 | 59 | 995.3 |
| 20260505080610 | 48 | 209 | 5.0 | 0.0 | 0.00 | 0.00 | 0.00 | 56 | 995.3 |
| 20260505080029 | 47 | 265 | 5.0 | 0.0 | 0.00 | 0.00 | 0.00 | 58 | 995.2 |
| 20260505075534 | 47 | 144 | 5.0 | 0.0 | 0.00 | 0.00 | 0.00 | 55 | 995.2 |
| 20260505075056 | 47 | 264 | 6.0 | 0.0 | 0.00 | 0.00 | 0.00 | 55 | 995.2 |
| 20260505074521 | 47 | 200 | 4.0 | 0.0 | 0.00 | 0.00 | 0.00 | 59 | 995.0 |
| 20260505074024 | 47 | 227 | 3.0 | 0.0 | 0.00 | 0.00 | 0.00 | 57 | 995.0 |
| 20260505073542 | 47 | 224 | 4.0 | 0.0 | 0.00 | 0.00 | 0.00 | 58 | 995.0 |
| 20260505073027 | 47 | 202 | 4.0 | 0.0 | 0.00 | 0.00 | 0.00 | 61 | 995.0 |
| 20260505072559 | 46 | 165 | 4.0 | 0.0 | 0.00 | 0.00 | 0.00 | 62 | 995.0 |
| 20260505072022 | 46 | 165 | 3.0 | 0.0 | 0.00 | 0.00 | 0.00 | 60 | 995.0 |
| 20260505071530 | 46 | 223 | 2.0 | 0.0 | 0.00 | 0.00 | 0.00 | 64 | 994.9 |
| 20260505071051 | 45 | 254 | 4.0 | 0.0 | 0.00 | 0.00 | 0.00 | 63 | 994.9 |
| 20260505070533 | 46 | 202 | 4.0 | 0.0 | 0.00 | 0.00 | 0.00 | 67 | 994.9 |
| 20260505070026 | 46 | 206 | 3.0 | 0.0 | 0.00 | 0.00 | 0.00 | 65 | 994.9 |
| 20260505065531 | 45 | 240 | 4.0 | 0.0 | 0.00 | 0.00 | 0.00 | 68 | 994.9 |
| 20260505065033 | 45 | 221 | 4.0 | 0.0 | 0.00 | 0.00 | 0.00 | 68 | 994.9 |
| 20260505064528 | 44 | 217 | 5.0 | 0.0 | 0.00 | 0.00 | 0.00 | 69 | 994.8 |
| 20260505064035 | 44 | 207 | 5.0 | 0.0 | 0.00 | 0.00 | 0.00 | 71 | 994.8 |
| 20260505063522 | 44 | 220 | 5.0 | 0.0 | 0.00 | 0.00 | 0.00 | 72 | 994.8 |
| 20260505063038 | 44 | 217 | 5.0 | 0.0 | 0.00 | 0.00 | 0.00 | 70 | 994.8 |
| 20260505062523 | 44 | 193 | 4.0 | 0.0 | 0.00 | 0.00 | 0.00 | 73 | 994.6 |
| 20260505062032 | 44 | 265 | 4.0 | 0.0 | 0.00 | 0.00 | 0.00 | 73 | 994.6 |
| 20260505061544 | 44 | 227 | 3.0 | 0.0 | 0.00 | 0.00 | 0.00 | 76 | 994.6 |
| 20260505061031 | 43 | 220 | 4.0 | 0.0 | 0.00 | 0.00 | 0.00 | 76 | 994.6 |
| 20260505060548 | 43 | 193 | 5.0 | 0.0 | 0.00 | 0.00 | 0.00 | 77 | 994.6 |
| 20260505060022 | 42 | 192 | 4.0 | 0.0 | 0.00 | 0.00 | 0.00 | 78 | 994.7 |
| 20260505055526 | 42 | 186 | 4.0 | 0.0 | 0.00 | 0.00 | 0.00 | 80 | 994.7 |
| 20260505055036 | 41 | 203 | 3.0 | 0.0 | 0.00 | 0.00 | 0.00 | 81 | 994.7 |